Reflectivity
-20 -20 -20 -20 -20 -20 -20 -20 -20 -20 -20 -20 -20 -20 -20 -20 -20 -20 -20 -20 -20 -20 -20 -20 -20 -20 -20 -20 -20 -20 -20 -20 -20 -20 -9 -12 -20 -20 -20 6 -20 -12 -20
-20 -20 -20 -20 -20 -20 -20 -20 -20 -20 -20 -20 -20 -20 -20 -20 -20 -20 -20 -20 -20 4 10 -20 -20 -20 -20 -20 -20 -20 -20 -20 -20 -20 -20 -20 -20 -20 -20 4 -20 -20 -20
-20 -20 -20 -20 -20 -20 -20 -20 -20 -20 -20 -20 -20 -20 -20 -20 -20 -20 -20 -20 -20 9 5 6 -3 -20 -20 -20 -20 -20 -20 -20 -11 -20 -20 -20 -20 -17 -15 -20 -20 -20 -20
-20 -20 -20 -20 -20 -20 -20 -20 -20 -20 -20 -20 -20 -20 -20 -20 -20 -20 -20 -20 -20 -20 -15 3 -12 -19 -20 -20 -20 -15 -20 -20 -20 -20 -11 -17 -14 -11 -20 -20 -9 0 -5
-20 -20 -20 -20 -20 -20 -20 -20 -20 -20 -12 -20 -20 -20 -20 -20 -20 -20 -20 -20 -20 -20 -20 5 -20 -20 -20 -20 -20 -20 -20 -20 -20 -20 -20 -20 12 -3 -20 -13 23 -20 -8
-20 -20 -20 -20 -20 -20 -20 -20 -20 -20 -1 -3 -20 -20 -20 -20 -20 -20 -20 -20 -20 -20 -0 -20 -10 22 23 11 -20 -20 -20 -20 -20 -5 -3 -3 -16 -20 -19 -20 10 -20 11
-20 -20 -20 -20 -20 -20 -20 -20 -20 -20 -20 -20 -20 -20 -20 -20 -20 -20 -20 -20 -20 -20 10 6 -20 -20 -20 -20 -20 -20 -20 -20 -20 15 -0 -20 16 1 -20 -20 -20 -16 -14
-20 -20 -20 -20 -20 -20 -20 -20 -20 -20 -20 -20 -20 -20 -19 -20 -20 -18 -20 -20 -20 -20 -20 -20 -20 -20 -20 -20 -20 -20 -20 -20 -20 32 32 -20 -20 0 9 -20 -1 -20 -20
-20 -20 -20 -20 -20 -20 -20 -20 -20 -20 -20 -1 -20 -3 -20 -20 -20 27 -18 -13 -7 -20 -1 -19 26 -20 -20 -20 -12 -0 -17 22 -20 27 -17 -20 -20 17 12 -0 -20 -20 -20
-20 -20 -20 -20 -20 -20 -20 -20 -20 -20 -20 -20 -20 7 -20 -20 -20 -20 -20 -20 -15 -18 -12 -20 -20 -20 -20 31 -0 6 17 18 -20 36 -20 -20 -19 15 11 11 -20 -20 -20
-20 -20 -20 -20 -20 -20 -20 -20 -20 -20 -20 -20 -20 -20 -18 -20 -20 -20 -20 -20 -20 -20 -20 -20 -20 -20 -20 -20 -20 -1 20 -3 -3 27 -15 -20 5 -20 2 -1 -20 -20 -20
-20 -20 -20 -20 -20 -20 -20 -20 -20 -20 -20 -20 -20 -20 -20 -20 -20 -20 -20 -20 -20 -20 -20 -20 -20 -20 -7 -20 -20 -20 -0 22 -1 23 31 -20 21 -20 -3 -0 -11 -20 -20
-20 -20 -20 -20 -20 -20 -20 -20 -20 -20 -20 -20 -20 -20 -20 -20 -20 -20 -20 -20 -20 -20 -20 -20 -20 -20 -20 -20 -20 -20 -16 -13 20 34 39 12 11 -13 1 -20 3 -10 -20
-20 -20 -20 -20 -20 -20 -20 -20 -20 -20 -20 -20 -20 -20 -20 -20 -20 -20 -20 -20 -20 -20 -20 -20 -20 -20 -19 -20 -20 -20 -20 -20 -20 -18 10 -7 2 -7 9 10 5 6 -20
-20 -20 -20 -20 -20 -20 -20 -20 -20 -20 -20 -20 -20 -20 -20 -20 -20 -20 -20 -17 -20 -20 -20 -20 -20 -20 -14 -11 -1 -20 -20 -20 -15 30 37 18 16 -19 -16 9 6 7 -20
-20 -20 -20 -20 -20 -20 -20 -20 -20 -20 -20 -20 -20 -20 -20 -20 -20 -20 -20 -20 -6 -20 -20 -9 -20 -20 -13 -20 -20 -9 -20 -20 -11 29 36 24 -20 -7 -20 -0 9 7 -18
-20 -20 -20 -20 -20 -20 -20 -20 -20 -20 -20 -20 -20 -20 -6 -19 -1 -20 -20 -20 -20 -20 -20 -20 -19 18 -10 -15 -20 -19 15 13 26 16 26 12 9 13 -20 -20 10 10 10
-20 -20 -20 -20 -20 -20 -20 -20 -20 -20 -20 -20 -20 -20 -18 -5 -18 -20 -20 -20 -20 -20 -13 3 10 9 -15 11 -15 26 20 17 19 15 21 -14 -15 6 -20 -20 12 3 14
-20 -20 -20 -20 -20 -20 -20 -20 -20 -20 -20 -20 -20 -20 -20 -2 -1 -0 -20 -17 -20 -20 -15 -14 1 10 -20 -13 -4 -19 29 23 12 24 16 -10 -4 -8 -20 9 0 5 -20
-20 -20 -20 -20 -20 -20 -20 -20 -20 -20 -20 -20 -20 -20 -20 -13 0 1 -20 -19 -17 2 -12 -18 -18 5 -14 -16 -4 2 35 24 21 16 6 -5 3 11 2 9 10 -2 7
-20 -20 -20 -20 -20 -20 -20 -20 -20 -20 -20 -20 -20 -20 -20 -12 0 -7 -20 -20 -9 -18 -20 -20 -20 -1 7 -19 21 22 31 32 27 22 4 12 -12 -6 9 1 -20 1 -2
-20 -20 -20 -20 -20 -20 -20 -20 -20 -20 -20 -20 -20 -20 -19 -20 -16 -20 -20 -20 -20 -20 -20 -20 -20 -20 -20 -5 18 21 19 34 21 21 19 13 -6 -14 2 1 4 -20 -20
-20 -20 -20 -20 -20 -20 -20 -20 -20 -20 -20 -20 -20 -20 -0 -14 -20 -14 -20 -18 -12 -20 5 -20 -20 -20 -20 -20 7 25 29 22 11 15 16 8 18 -16 -11 12 6 -20 -20
-20 -20 -20 -20 -20 -20 -20 -20 -20 -20 -20 -20 -20 -20 3 -16 -20 -20 -10 -11 -20 -17 -18 -9 -12 -20 -20 -20 8 22 22 21 27 19 5 3 21 9 -20 12 4 -20 -20
-20 -20 -20 -20 -20 -20 -20 -20 -20 -20 -20 -20 -6 -4 18 7 5 9 -1 -11 -20 -20 -19 -20 -18 -20 -20 1 -5 -2 15 20 23 33 27 16 11 21 6 -20 -1 -20 -20
-20 -20 -20 -20 -20 -20 -20 -20 -20 -20 -20 -20 -14 -11 -19 2 8 3 6 -20 -19 -17 -20 -20 -20 -20 -20 2 3 -2 28 33 23 16 23 27 22 22 2 -19 -11 -20 -20
Wind_Speed
14 15 16 14 12 12 11 11 11 11 11 12 12 11 12 13 12 11 11 10 11 13 14 12 11 10 11 11 15 15 16 15 14 17 17 19 17 15 13 16 18 16 18
16 16 15 14 13 11 11 10 10 11 13 13 12 12 12 13 12 12 12 10 10 13 14 13 11 10 11 13 14 14 13 14 15 16 17 16 14 13 13 19 19 16 19
15 15 14 13 12 11 10 9 10 13 13 14 13 12 13 13 13 12 13 11 9 13 13 13 12 11 12 11 12 12 12 12 14 15 16 10 9 17 21 20 18 19 20
15 13 13 13 12 10 10 10 12 14 15 13 13 13 13 13 13 12 12 12 11 12 12 12 12 12 10 10 11 11 10 11 11 11 7 11 11 16 20 20 19 20 20
13 13 14 14 13 11 10 10 11 13 13 13 13 14 14 14 13 12 11 11 12 13 13 13 13 11 9 8 10 11 9 10 9 8 8 12 8 12 18 18 17 18 18
13 14 15 13 13 11 11 10 11 11 12 12 11 12 13 13 12 10 10 10 11 12 14 13 13 14 13 10 10 10 10 7 6 2 8 13 8 15 15 13 15 19 18
11 14 13 12 12 11 11 10 10 11 11 11 11 11 11 12 12 11 11 10 11 12 12 13 11 16 13 10 10 8 9 4 6 0 9 11 9 15 16 19 18 18 19
14 13 12 12 12 11 11 10 11 11 11 11 12 12 12 12 13 11 11 11 10 9 9 8 8 13 13 12 10 7 8 5 5 2 6 10 16 17 18 19 19 19 19
11 13 10 10 11 10 10 10 10 11 11 11 10 10 11 10 10 12 12 11 12 10 8 9 10 13 13 12 9 4 8 1 5 0 10 8 15 17 18 20 21 19 18
9 11 11 10 9 9 8 9 9 10 10 10 9 9 8 7 8 11 12 11 11 11 9 10 9 9 12 9 8 7 5 2 6 8 8 9 15 18 19 19 20 20 18
9 9 11 11 10 10 10 8 8 10 10 10 9 8 7 5 7 8 8 9 9 7 8 10 8 8 11 10 8 6 2 3 5 1 7 18 17 19 18 18 18 18 19
12 11 11 11 12 11 9 11 9 8 7 7 8 9 6 7 6 8 11 10 11 9 8 10 12 11 9 5 3 7 3 1 1 5 5 17 17 19 18 17 17 17 18
15 12 12 10 11 11 8 8 6 6 6 6 9 7 8 6 4 4 4 5 5 6 5 8 7 5 7 5 5 5 5 3 2 6 9 13 18 18 18 18 17 18 17
17 16 13 14 10 10 7 8 9 8 6 6 7 8 5 5 5 4 3 5 5 5 6 7 5 5 6 6 7 6 5 4 3 2 4 13 15 18 17 17 18 18 18
18 19 18 16 13 11 8 5 5 9 8 8 7 10 8 5 5 4 4 5 6 6 7 6 6 5 7 8 8 6 6 5 5 3 5 11 14 16 18 18 18 18 18
8 17 17 17 15 12 10 7 6 7 8 5 6 7 10 7 7 6 5 5 4 5 5 6 6 6 6 6 5 6 7 6 7 6 7 7 13 14 16 18 19 18 18
7 5 15 16 15 14 12 10 5 6 9 9 6 5 7 7 7 7 5 4 4 4 6 5 6 5 5 6 7 5 5 5 5 8 10 7 9 12 12 14 16 17 18
11 9 13 12 15 13 9 8 8 5 5 9 8 8 8 8 7 6 6 6 4 4 4 4 4 5 6 7 6 6 5 5 4 7 10 9 8 7 9 13 15 16 17
10 9 8 14 17 16 11 7 8 7 4 5 8 8 13 10 9 7 6 7 8 5 4 4 5 7 6 7 8 7 7 6 7 11 12 12 11 8 6 12 13 13 15
10 6 7 9 13 15 11 9 6 8 8 5 5 6 8 8 9 7 5 4 7 7 5 5 7 4 5 7 6 7 6 5 5 6 10 10 10 11 9 9 8 9 13
5 7 5 5 7 8 8 9 9 9 8 7 5 8 9 9 10 10 7 5 7 7 8 8 4 7 3 6 4 5 3 5 7 7 9 7 11 10 9 9 7 5 6
3 3 2 2 4 6 8 8 7 9 6 6 4 6 13 14 13 10 8 5 8 8 9 9 9 4 4 8 5 7 6 2 2 3 7 8 10 7 9 10 10 9 9
4 2 3 5 6 7 8 6 4 5 3 4 6 8 8 12 11 11 9 8 9 8 9 10 11 11 6 6 5 4 4 4 6 3 8 10 10 8 8 10 10 10 12
5 3 4 5 7 6 8 6 12 9 8 8 7 8 7 7 9 11 11 11 10 8 9 9 9 9 9 8 4 3 3 2 7 4 2 6 10 10 9 5 6 8 11
6 6 4 2 6 8 6 8 10 10 8 7 8 10 12 9 10 11 10 12 11 8 10 11 11 10 9 9 8 4 3 2 3 6 7 3 7 8 8 7 6 5 6
4 6 2 4 8 6 7 6 11 13 11 9 10 11 10 7 8 9 11 11 10 10 11 10 11 12 10 9 6 7 7 8 8 7 6 4 8 9 5 7 8 7 6
Wind_Direction
112 128 125 127 126 126 128 137 149 151 142 135 134 133 128 121 116 112 107 103 111 118 121 124 119 110 106 102 98 96 100 99 99 97 96 97 100 103 102 105 98 100 99
119 128 122 128 130 130 134 145 155 150 146 144 142 140 136 129 131 127 126 125 132 135 135 134 119 117 117 109 101 97 99 104 102 101 100 96 102 107 108 93 95 100 99
114 124 135 127 131 138 142 140 142 151 151 151 147 145 142 141 142 141 141 139 146 136 134 136 131 131 121 111 106 105 108 111 121 125 126 105 88 103 101 98 104 105 105
123 138 139 135 136 138 133 135 140 151 153 154 151 150 150 150 151 154 153 154 151 139 140 142 136 134 125 122 118 117 127 140 142 151 115 112 106 108 110 109 114 111 108
131 136 133 140 135 134 130 133 140 147 151 154 155 156 158 159 161 158 159 156 151 151 152 150 135 129 122 130 131 135 155 163 175 181 134 117 115 117 116 119 117 115 107
136 126 138 140 135 135 132 133 139 143 144 146 156 160 165 161 160 159 158 159 157 158 159 156 160 144 147 150 148 156 175 176 220 228 125 115 121 121 124 123 111 110 113
113 116 140 139 134 132 134 131 132 138 143 148 156 162 166 162 167 164 164 165 172 182 169 173 166 144 145 152 154 175 204 132 223 130 131 107 118 124 121 111 108 112 109
116 128 136 142 136 134 132 135 136 140 148 153 160 165 165 171 179 171 175 175 179 178 170 159 127 140 148 152 161 183 235 189 215 81 129 113 121 124 123 118 110 113 114
122 126 139 154 149 142 144 149 148 147 153 162 169 170 172 186 176 184 182 188 187 184 176 143 136 158 152 152 161 193 258 58 296 357 103 108 122 131 130 124 122 120 120
135 134 145 155 159 160 158 160 155 154 157 161 174 170 175 187 178 187 188 199 187 194 154 150 161 162 160 146 158 193 233 357 251 211 116 124 137 135 134 134 130 128 126
158 162 154 160 167 169 166 168 163 160 163 166 176 174 160 196 193 196 199 188 180 178 161 160 153 169 148 142 177 139 4 235 260 203 123 141 148 140 139 137 136 135 135
171 174 167 169 168 175 179 155 183 176 178 181 178 177 199 199 196 191 186 173 167 170 168 148 152 155 144 146 170 169 209 262 13 2 134 151 148 145 147 145 144 142 139
176 181 173 174 167 176 194 158 181 179 185 187 187 191 186 197 206 186 161 183 172 166 162 141 142 162 182 151 167 193 197 154 77 162 177 156 150 156 155 152 153 149 145
180 182 181 169 170 178 193 177 181 174 183 183 194 182 196 192 184 173 172 167 181 168 200 173 170 180 158 156 179 186 183 116 100 55 197 162 153 155 160 162 159 152 149
185 180 177 171 173 176 209 189 206 166 176 187 183 189 193 185 167 167 185 176 185 190 194 168 171 169 169 178 195 178 171 117 111 142 257 170 155 158 163 168 163 158 152
226 184 175 172 169 174 188 226 187 155 171 206 186 180 189 184 179 175 179 183 193 187 195 151 167 173 176 167 188 179 182 145 159 172 192 177 156 161 165 170 167 165 158
247 231 172 169 164 169 183 203 224 188 168 184 175 205 189 199 178 173 162 184 197 187 166 150 178 170 153 168 185 187 181 174 180 176 181 164 163 160 167 167 168 167 164
206 215 165 166 166 167 186 193 208 201 177 174 185 189 210 209 195 176 171 177 181 192 171 173 170 182 162 179 182 193 192 201 167 225 177 161 163 167 169 169 167 166 164
229 200 187 167 160 167 185 219 194 197 217 188 172 181 193 196 203 192 193 172 171 167 170 176 174 186 166 179 187 183 191 201 196 191 157 159 164 158 168 166 161 163 167
217 207 174 153 167 166 170 197 214 187 205 200 204 184 165 200 199 196 200 191 160 164 154 152 165 185 173 173 187 178 191 216 200 182 158 161 167 158 165 164 168 169 168
95 50 30 119 153 159 171 183 209 207 194 196 198 164 174 200 193 200 200 181 153 144 154 158 150 173 173 173 175 178 195 210 193 189 161 167 163 158 156 161 167 170 177
97 61 332 260 188 173 187 198 205 213 185 189 188 202 193 194 189 198 188 176 149 152 154 164 165 155 176 179 173 173 170 177 262 263 159 161 159 155 160 170 179 171 172
142 132 246 257 260 208 212 186 157 81 104 177 203 223 208 181 180 182 182 159 160 157 169 178 183 175 176 187 195 157 146 178 155 243 169 164 165 166 168 181 183 189 177
164 134 54 318 300 266 197 198 160 174 189 203 200 203 231 183 185 183 188 159 169 166 172 178 178 186 177 181 181 240 96 155 156 160 227 165 174 169 169 189 201 207 180
154 136 103 233 276 289 276 194 171 194 204 185 194 189 219 207 193 199 180 153 172 176 176 173 176 186 191 179 187 161 110 150 77 151 186 160 176 177 181 176 194 205 176
138 109 86 306 292 259 267 250 180 195 198 201 198 196 198 196 192 191 169 164 176 176 174 178 180 183 186 190 187 182 182 171 169 157 159 183 181 187 172 181 198 192 192